Total_Precipitation_Accumulation
1.10 1.27 1.25 1.01 0.91 0.79 0.68 0.67 0.54 0.40 0.39 0.44 0.44 0.42 0.37 0.33 0.35 0.32 0.28 0.33 0.41 0.42 0.44 0.52 0.61 0.75 0.85 0.89 0.97 1.14 1.33 1.44 1.47 1.50 1.47 1.42 1.55 1.61 1.48 1.41 1.56 1.72 1.80 1.83
1.20 1.00 0.65 0.55 0.58 0.68 0.71 0.72 0.56 0.41 0.42 0.51 0.49 0.47 0.37 0.31 0.33 0.30 0.27 0.31 0.39 0.43 0.47 0.54 0.61 0.74 0.83 0.92 0.95 1.08 1.28 1.38 1.37 1.35 1.41 1.40 1.44 1.53 1.56 1.45 1.46 1.59 1.76 1.90
0.97 0.63 0.45 0.58 0.65 0.76 0.74 0.64 0.53 0.51 0.52 0.60 0.65 0.62 0.39 0.31 0.31 0.30 0.32 0.34 0.41 0.44 0.48 0.53 0.59 0.69 0.81 0.94 0.95 0.95 1.13 1.36 1.40 1.40 1.51 1.56 1.65 1.70 1.70 1.58 1.45 1.48 1.56 1.65
0.77 0.48 0.50 0.67 0.67 0.70 0.70 0.41 0.43 0.53 0.71 0.76 0.70 0.86 0.48 0.33 0.31 0.30 0.34 0.40 0.44 0.46 0.48 0.54 0.59 0.69 0.77 0.91 1.05 1.02 1.05 1.24 1.46 1.47 1.46 1.47 1.54 1.57 1.57 1.51 1.41 1.41 1.52 1.57
0.83 0.51 0.54 0.68 0.54 0.51 0.53 0.37 0.44 0.61 0.80 0.82 0.67 0.84 0.55 0.33 0.35 0.30 0.28 0.34 0.38 0.43 0.50 0.56 0.61 0.71 0.82 0.94 1.10 1.17 1.16 1.16 1.37 1.43 1.36 1.36 1.37 1.43 1.54 1.55 1.50 1.44 1.52 1.61
0.66 0.50 0.55 0.50 0.41 0.44 0.49 0.57 0.72 0.85 1.12 1.19 0.54 0.57 0.57 0.46 0.47 0.36 0.30 0.34 0.37 0.44 0.54 0.58 0.64 0.76 0.89 0.99 1.13 1.23 1.27 1.20 1.25 1.46 1.41 1.30 1.27 1.29 1.40 1.51 1.61 1.60 1.56 1.59
0.89 0.68 0.60 0.50 0.61 0.69 0.79 1.15 1.75 1.88 1.73 1.00 0.31 0.36 0.52 0.44 0.43 0.39 0.36 0.40 0.39 0.44 0.53 0.58 0.66 0.78 0.84 0.93 1.06 1.18 1.22 1.24 1.23 1.36 1.44 1.34 1.25 1.23 1.24 1.33 1.45 1.56 1.58 1.54
1.05 0.93 0.68 0.57 0.71 0.89 0.83 1.00 1.36 1.33 0.86 0.41 0.23 0.35 0.44 0.37 0.31 0.32 0.33 0.37 0.37 0.38 0.45 0.53 0.61 0.71 0.79 0.82 0.94 1.07 1.16 1.16 1.18 1.30 1.46 1.45 1.35 1.32 1.22 1.24 1.35 1.43 1.45 1.42
0.97 0.70 0.46 0.42 0.42 0.55 0.74 0.76 0.69 0.94 0.62 0.41 0.33 0.32 0.33 0.25 0.22 0.25 0.28 0.32 0.36 0.38 0.43 0.48 0.56 0.61 0.65 0.75 0.84 0.95 1.12 1.21 1.19 1.21 1.40 1.59 1.57 1.45 1.33 1.22 1.27 1.32 1.34 1.38
1.01 0.78 0.41 0.42 0.56 0.60 0.64 0.71 0.85 1.18 0.99 0.58 0.32 0.31 0.43 0.35 0.31 0.28 0.28 0.31 0.32 0.36 0.46 0.49 0.53 0.55 0.59 0.67 0.75 0.85 1.02 1.16 1.20 1.17 1.25 1.44 1.66 1.62 1.51 1.45 1.30 1.28 1.29 1.33
0.85 0.95 0.63 0.56 0.79 0.76 0.67 0.85 1.03 1.08 0.84 0.71 0.46 0.40 0.46 0.41 0.35 0.30 0.28 0.28 0.30 0.33 0.41 0.46 0.48 0.55 0.59 0.64 0.73 0.83 0.94 1.06 1.12 1.07 1.11 1.23 1.44 1.64 1.64 1.55 1.42 1.28 1.26 1.25
0.83 1.04 0.80 0.51 0.48 0.50 0.61 0.74 0.89 1.10 0.82 0.54 0.49 0.41 0.29 0.27 0.28 0.27 0.26 0.25 0.27 0.32 0.35 0.40 0.44 0.53 0.57 0.62 0.72 0.78 0.86 1.00 1.08 1.07 1.09 1.13 1.22 1.39 1.60 1.54 1.40 1.26 1.22 1.24
1.30 1.54 1.24 0.89 0.73 0.64 0.72 0.66 0.68 0.79 0.83 0.60 0.51 0.39 0.22 0.16 0.19 0.20 0.22 0.23 0.26 0.30 0.32 0.37 0.45 0.47 0.52 0.61 0.67 0.71 0.78 0.91 1.01 1.09 1.10 1.07 1.13 1.21 1.31 1.44 1.39 1.29 1.21 1.19
1.48 1.59 1.17 0.96 0.78 0.74 0.71 0.52 0.51 0.76 0.97 0.59 0.34 0.29 0.21 0.19 0.22 0.22 0.22 0.22 0.26 0.29 0.32 0.36 0.43 0.45 0.49 0.56 0.66 0.67 0.77 0.86 0.90 0.98 1.01 0.99 0.98 1.04 1.10 1.20 1.38 1.38 1.29 1.19
1.26 1.28 0.65 0.41 0.33 0.37 0.41 0.36 0.36 0.53 0.57 0.47 0.28 0.25 0.27 0.26 0.26 0.28 0.28 0.28 0.28 0.28 0.31 0.36 0.41 0.45 0.51 0.58 0.67 0.71 0.74 0.75 0.76 0.86 0.92 0.96 0.98 1.03 1.06 1.04 1.17 1.35 1.30 1.16
1.16 1.12 0.57 0.35 0.27 0.30 0.32 0.27 0.29 0.33 0.33 0.31 0.22 0.24 0.26 0.24 0.20 0.22 0.25 0.28 0.31 0.33 0.34 0.35 0.40 0.44 0.51 0.58 0.68 0.78 0.78 0.75 0.71 0.76 0.85 0.91 0.98 1.10 1.10 1.02 1.07 1.20 1.28 1.22
1.11 1.12 0.93 0.51 0.27 0.45 0.50 0.36 0.34 0.35 0.34 0.34 0.38 0.33 0.25 0.25 0.25 0.28 0.31 0.31 0.34 0.36 0.38 0.38 0.41 0.46 0.53 0.58 0.67 0.78 0.80 0.78 0.74 0.73 0.79 0.85 0.89 1.04 1.09 1.06 1.10 1.15 1.21 1.28
0.87 1.04 1.30 0.84 0.62 0.88 0.46 0.25 0.28 0.32 0.36 0.38 0.37 0.30 0.29 0.31 0.29 0.29 0.34 0.38 0.38 0.37 0.38 0.39 0.43 0.49 0.50 0.55 0.60 0.69 0.74 0.73 0.75 0.76 0.80 0.85 0.84 0.88 1.02 1.10 1.10 1.13 1.16 1.19
0.50 0.98 1.52 1.29 0.93 0.53 0.25 0.21 0.28 0.37 0.41 0.34 0.30 0.27 0.24 0.23 0.21 0.22 0.22 0.28 0.36 0.36 0.37 0.40 0.44 0.48 0.48 0.49 0.53 0.64 0.71 0.69 0.74 0.82 0.83 0.82 0.78 0.80 0.89 0.99 1.08 1.12 1.13 1.09
0.54 0.98 1.69 1.47 1.13 0.54 0.33 0.21 0.19 0.30 0.51 0.31 0.26 0.28 0.26 0.25 0.33 0.26 0.19 0.24 0.32 0.30 0.32 0.37 0.42 0.41 0.43 0.47 0.50 0.62 0.69 0.65 0.71 0.77 0.83 0.77 0.69 0.66 0.68 0.78 0.97 1.08 1.08 1.03
0.92 1.41 1.66 1.26 1.03 0.46 0.31 0.22 0.22 0.47 0.57 0.29 0.25 0.28 0.28 0.32 0.39 0.30 0.24 0.28 0.31 0.26 0.27 0.32 0.36 0.38 0.45 0.49 0.49 0.57 0.67 0.71 0.72 0.75 0.81 0.73 0.67 0.66 0.66 0.71 0.87 1.01 1.08 1.07
0.77 1.04 1.04 0.95 1.08 0.59 0.30 0.31 0.49 0.56 0.32 0.23 0.20 0.21 0.23 0.23 0.21 0.21 0.23 0.27 0.29 0.24 0.23 0.24 0.30 0.35 0.42 0.47 0.50 0.57 0.66 0.71 0.76 0.77 0.74 0.73 0.72 0.69 0.71 0.74 0.85 0.99 1.07 1.11
0.59 0.75 0.76 0.71 0.62 0.43 0.35 0.44 0.45 0.35 0.26 0.19 0.20 0.19 0.18 0.19 0.19 0.21 0.24 0.26 0.28 0.25 0.24 0.25 0.29 0.32 0.39 0.45 0.50 0.60 0.67 0.65 0.70 0.73 0.73 0.72 0.74 0.72 0.74 0.79 0.87 0.99 1.06 1.09
0.38 0.42 0.54 0.52 0.35 0.28 0.30 0.31 0.30 0.25 0.22 0.19 0.19 0.19 0.18 0.18 0.18 0.21 0.23 0.24 0.25 0.25 0.25 0.26 0.29 0.32 0.41 0.46 0.49 0.57 0.63 0.60 0.58 0.62 0.67 0.66 0.71 0.76 0.80 0.83 0.87 0.95 1.05 1.11
0.33 0.38 0.48 0.46 0.28 0.24 0.24 0.24 0.25 0.22 0.19 0.18 0.18 0.19 0.19 0.19 0.19 0.21 0.23 0.23 0.24 0.28 0.28 0.29 0.31 0.34 0.42 0.48 0.54 0.59 0.58 0.55 0.54 0.55 0.64 0.69 0.73 0.79 0.82 0.85 0.90 0.97 0.99 1.12
0.25 0.33 0.45 0.43 0.28 0.32 0.29 0.24 0.23 0.22 0.22 0.22 0.22 0.21 0.18 0.20 0.24 0.22 0.23 0.25 0.27 0.31 0.33 0.32 0.33 0.36 0.43 0.49 0.59 0.61 0.55 0.53 0.55 0.58 0.63 0.70 0.75 0.77 0.77 0.76 0.82 0.96 1.00 1.04